Hourly Data Report for May 04, 2021

FISHER BRANCH (AUT)
MANITOBA
Current Station Operator: ECCC - MSC

51°05'00.100" N
97°33'16.200" W
253.00 m
50309J6
71442
WSZ

Download Data

Hourly Data (May 2021)
Hourly Data Report for May 4, 2021
TIME
LST
Temp Definition
°C
Dew Point Definition
°C
Rel Hum Definition
%
Precip. Amount Definition
mm

Wind Dir Definition
10's deg

Wind Spd Definition
km/h
Visibility Definition
km
Stn Press Definition
kPa
Hmdx Definition


Wind Chill Definition


Weather Definition


00:00 0.3 -5.2 67 0.0 32 7   98.99     LegendNANA
01:00 0.4 -4.9 68 0.0 31 8   99.01     LegendNANA
02:00 -0.4 -5.0 71 0.0 30 9   98.97   -4 LegendNANA
03:00 -0.3 -4.7 72 0.0 30 8   98.95   -3 LegendNANA
04:00 -0.9 -4.7 75 0.0 30 9   98.98   -4 LegendNANA
05:00 -2.4 -5.4 80 0.0 30 10   99.00   -6 LegendNANA
06:00 -2.5 -5.1 82 0.0 30 9   99.04   -6 LegendNANA
07:00 0.3 -4.1 72 0.0 31 11   99.06     LegendNANA
08:00 3.8 -4.0 57 0.0 32 13   99.08     LegendNANA
09:00 4.7 -4.7 51 0.0 32 16   99.07     LegendNANA
10:00 5.6 -7.1 39 0.0 32 16   99.05     LegendNANA
11:00 5.9 -6.4 41 0.0 32 13   99.04     LegendNANA
12:00 6.0 -6.4 40 0.0 32 14   99.05     LegendNANA
13:00 6.5 -6.8 38 0.0 35 13   99.00     LegendNANA
14:00 7.1 -7.6 34 0.0 35 9   98.97     LegendNANA
15:00 8.0 -7.2 33 0.0 33 12   98.93     LegendNANA
16:00 7.8 -7.0 34 0.0 36 13   98.93     LegendNANA
17:00 6.9 -6.5 38 0.0 34 13   98.94     LegendNANA
18:00 7.0 -6.5 38 0.0 1 12   98.95     LegendNANA
19:00 5.6 -6.1 43 0.0 4 13   98.97     LegendNANA
20:00 2.9 -5.7 53 0.0 4 10   99.00     LegendNANA
21:00 0.1 -6.3 62 0.0 3 8   99.09     LegendNANA
22:00 -2.2 -7.4 67 0.0 1 6   99.14   -5 LegendNANA
23:00 -3.1 -7.0 74 0.0 32 6   99.15   -6 LegendNANA

Notes on Data Quality.

Legend

  • E = Estimated
  • M = Missing
  • NA = Not Available*
  • [empty] = Indicates an unobserved value
Date modified: